Location: Unspecified
(43.4354°N, 0.0000°E)
Time: 10:49:29
(UTC+00:00)

Courier 1B Rocket - Pass Details

Date: 26 June 2019
Orbit: 920 x 1202 km, 28.2° (Epoch: 16 July)

Event Time Altitude Azimuth Distance (km) Brightness Sun altitude
Exits shadow 03:29:56 - 220° (SW) 3,011 6.9 -8.0°
Reaches altitude 10° 03:30:13 10° 219° (SW) 2,940 6.8 -8.0°
Maximum altitude 03:35:18 21° 173° (S) 2,166 6.5 -7.3°
Drops below altitude 10° 03:40:11 10° 127° (SE) 2,790 7.6 -6.6°
Sets 03:43:28 0° 112° (ESE) 3,692 8.4 -6.2°
